Precipitable_Water
2.14 2.28 2.35 2.02 1.19 0.94 0.75 0.81 1.02 0.94 0.88 1.20 1.28 1.24 1.05 1.05 1.08 0.73 1.45 1.64 1.49 1.49 1.65 1.73 1.81 1.81 1.78 1.76 1.75 1.73 1.82 1.77 1.57 1.62 1.76 1.77 1.64 1.63 1.87 1.75 1.74 1.79 1.77 1.76 1.77 1.72 1.69 1.68 1.79
2.22 2.14 1.99 1.61 0.93 0.62 0.75 0.87 0.82 0.92 1.20 1.28 1.26 1.26 1.10 0.86 1.09 1.21 1.35 1.63 1.46 1.43 1.51 1.58 1.66 1.76 1.77 1.75 1.69 1.74 1.63 1.82 1.65 1.80 1.83 1.79 1.81 1.85 1.81 1.77 1.81 1.74 1.68 1.68 1.70 1.72 1.75 1.77 1.80
2.12 2.18 1.56 1.20 0.75 0.60 0.76 1.19 0.95 1.01 1.29 1.31 1.06 1.14 1.01 0.91 1.20 1.29 1.55 1.56 1.43 1.41 1.48 1.57 1.58 1.70 1.73 1.73 1.71 1.78 1.77 1.89 1.90 1.73 1.68 1.68 1.67 1.76 1.79 1.68 1.63 1.73 1.59 1.69 1.78 1.64 1.68 1.76 1.80
1.77 1.79 1.54 0.90 0.71 0.84 0.99 1.06 1.12 1.13 1.05 1.10 1.07 0.77 0.99 1.25 1.25 1.41 1.55 1.48 1.39 1.49 1.52 1.56 1.60 1.70 1.79 1.73 1.68 1.82 1.94 1.82 1.83 1.76 1.74 1.72 1.75 1.80 1.89 1.92 1.70 1.55 1.61 1.59 1.71 1.66 1.62 1.62 1.67
1.78 1.31 0.89 0.77 0.79 0.85 1.08 1.13 1.01 0.85 0.94 1.03 0.98 0.80 0.89 1.18 1.37 1.42 1.45 1.46 1.44 1.56 1.48 1.54 1.59 1.69 1.85 1.81 1.68 1.78 1.79 1.89 1.74 1.78 1.79 1.81 1.72 1.72 1.74 1.77 1.72 1.64 1.54 1.56 1.66 1.72 1.71 1.53 1.38
1.30 1.28 0.82 0.71 0.73 0.91 1.01 1.01 1.16 0.90 0.97 1.04 1.05 0.84 0.90 1.22 1.18 1.30 1.40 1.50 1.58 1.52 1.50 1.54 1.66 1.67 1.80 1.74 1.75 1.92 1.83 1.82 1.77 1.79 1.79 1.77 1.82 1.82 1.85 1.79 1.83 1.85 1.81 1.66 1.59 1.62 1.71 1.77 1.65
1.20 1.03 0.80 0.76 0.75 0.85 1.09 1.31 1.07 1.06 1.18 1.06 1.22 0.86 0.88 1.04 1.19 1.29 1.48 1.59 1.66 1.57 1.46 1.52 1.69 1.67 1.71 1.70 1.73 1.86 1.75 1.65 1.75 1.85 1.89 2.00 1.91 1.81 1.80 1.80 1.82 1.78 1.78 1.85 1.82 1.67 1.68 1.86 1.79
1.04 0.96 0.75 0.75 0.72 0.82 1.17 1.21 1.17 1.11 1.05 1.30 1.22 0.86 0.77 0.93 1.18 1.33 1.51 1.57 1.58 1.48 1.43 1.45 1.53 1.59 1.61 1.64 1.68 1.75 1.72 1.75 1.82 1.81 1.84 1.90 1.94 1.93 1.87 1.94 2.03 1.95 1.90 1.88 1.81 1.78 1.76 1.83 1.87
1.00 0.73 0.62 0.67 0.80 0.92 1.04 0.97 1.05 1.21 1.01 1.16 1.11 0.95 0.97 1.05 1.21 1.30 1.38 1.46 1.49 1.41 1.40 1.57 1.56 1.51 1.52 1.57 1.59 1.62 1.66 1.70 1.67 1.65 1.70 1.85 1.91 1.93 1.91 2.01 1.97 1.89 1.89 1.89 1.91 1.89 1.87 1.90 1.82
0.80 0.65 0.55 0.72 0.82 0.81 0.91 0.91 0.99 1.07 0.98 1.03 0.99 1.03 1.06 1.08 1.20 1.22 1.28 1.28 1.36 1.42 1.39 1.49 1.50 1.56 1.59 1.52 1.58 1.60 1.55 1.64 1.71 1.70 1.73 1.90 2.06 2.12 2.04 1.95 1.87 1.87 1.89 1.97 1.85 1.86 1.90 1.93 1.89
0.67 0.54 0.58 0.66 0.71 0.84 0.88 0.87 1.01 1.09 0.98 1.00 0.93 0.93 1.04 1.06 1.15 1.22 1.31 1.34 1.36 1.43 1.46 1.54 1.55 1.63 1.72 1.75 1.77 1.70 1.69 1.79 1.87 1.85 2.00 2.02 2.05 2.13 2.07 1.90 1.88 1.98 2.02 1.93 1.96 1.95 1.98 2.08 2.01
0.58 0.53 0.53 0.62 0.73 0.88 0.87 1.07 0.92 0.95 1.05 1.15 1.09 1.04 1.11 1.12 1.14 1.23 1.28 1.35 1.41 1.40 1.44 1.55 1.59 1.61 1.73 1.84 1.81 1.75 1.80 1.84 1.86 1.88 2.08 2.08 2.13 2.10 2.06 1.92 2.05 2.07 2.05 1.99 2.09 2.08 2.13 2.03 2.03
0.56 0.62 0.57 0.59 0.60 0.84 0.93 0.87 0.95 1.12 1.17 1.26 1.05 1.03 1.07 1.15 1.22 1.30 1.39 1.40 1.45 1.41 1.47 1.52 1.60 1.61 1.66 1.71 1.76 1.76 1.80 1.81 1.87 1.86 1.97 2.09 2.16 2.15 2.16 2.04 2.17 2.18 2.16 2.05 2.04 2.12 2.11 2.11 2.06
0.64 0.62 0.55 0.53 0.59 0.79 0.81 0.86 0.95 1.21 1.42 1.14 1.09 1.12 1.09 1.14 1.22 1.31 1.35 1.45 1.46 1.49 1.51 1.65 1.62 1.63 1.69 1.66 1.68 1.60 1.74 1.80 1.88 1.84 1.87 1.94 2.00 2.06 2.15 2.16 2.13 2.15 2.22 2.16 2.11 2.09 2.10 2.12 2.19
0.65 0.47 0.52 0.54 0.57 0.64 0.70 0.66 0.86 1.08 1.76 1.43 1.45 1.45 1.26 1.19 1.26 1.30 1.36 1.45 1.52 1.57 1.66 1.64 1.62 1.64 1.57 1.60 1.66 1.66 1.65 1.74 1.77 1.80 1.84 1.83 1.90 1.92 1.98 2.07 2.11 2.14 2.16 2.20 2.15 2.12 2.10 2.04 2.09
0.62 0.52 0.47 0.58 0.61 0.67 0.56 0.49 0.79 1.10 1.31 1.11 1.30 1.56 1.41 1.27 1.25 1.33 1.39 1.47 1.64 1.74 1.70 1.78 1.83 1.81 1.75 1.73 1.65 1.65 1.67 1.75 1.88 1.91 1.95 1.96 1.99 1.90 1.87 1.95 2.00 2.08 2.16 2.19 2.17 2.16 2.14 2.08 2.04
0.60 0.49 0.58 0.62 0.68 0.62 0.60 0.56 0.81 1.01 1.07 1.03 1.05 1.25 1.37 1.21 1.40 1.32 1.39 1.59 1.81 1.81 1.72 1.79 1.90 2.03 1.94 1.89 1.93 1.93 1.89 1.92 1.93 1.95 2.03 2.12 2.17 2.04 1.96 2.01 2.04 2.08 2.16 2.13 2.11 2.07 2.08 2.05 2.08
0.54 0.60 0.63 0.61 0.65 0.60 0.61 0.58 0.67 0.87 1.00 1.08 1.03 1.12 1.06 1.15 1.38 1.32 1.41 1.54 1.71 1.84 1.79 1.70 1.73 1.89 2.06 2.08 2.09 2.16 2.03 1.99 1.97 2.03 2.29 2.22 2.04 2.05 2.19 2.18 2.37 2.29 2.22 2.22 2.12 2.12 2.20 2.14 2.05
0.74 0.70 0.60 0.61 0.66 0.56 0.53 0.59 0.68 0.92 1.04 1.02 0.87 0.99 0.93 1.18 1.25 1.31 1.39 1.36 1.62 1.71 1.72 1.73 1.73 1.72 2.01 2.04 2.02 1.95 1.94 2.00 1.98 1.91 1.98 1.92 1.69 1.72 1.91 2.12 2.27 2.36 2.20 2.04 2.07 2.13 2.17 2.09 2.25
0.70 0.65 0.64 0.69 0.67 0.60 0.48 0.53 0.72 0.93 0.99 0.97 0.86 0.96 1.15 0.93 1.17 1.31 1.44 1.40 1.40 1.51 1.63 1.74 1.77 1.79 1.92 2.05 2.02 2.12 2.07 2.07 2.08 2.07 1.84 1.70 1.65 1.59 1.58 1.75 1.89 1.97 1.88 1.95 1.91 1.95 1.93 2.06 2.16
0.68 0.63 0.64 0.57 0.60 0.59 0.42 0.46 0.70 0.84 1.02 1.04 1.01 1.12 1.08 1.10 1.19 1.26 1.43 1.50 1.55 1.34 1.49 1.62 1.66 1.63 1.72 1.89 1.97 2.00 2.08 2.17 1.94 1.73 1.71 1.79 1.67 1.64 1.67 1.61 1.67 1.74 1.87 1.79 1.89 1.98 2.02 1.91 2.08
0.56 0.72 0.70 0.55 0.53 0.39 0.50 0.40 0.58 0.65 0.73 0.81 0.82 1.07 1.18 0.91 1.33 1.42 1.43 1.48 1.55 1.43 1.47 1.59 1.57 1.73 1.79 1.85 1.87 1.81 1.70 1.67 1.74 1.65 1.68 1.72 1.64 1.83 1.93 1.90 1.77 1.73 1.74 1.78 1.90 1.95 1.96 1.97 1.90
0.60 0.74 0.63 0.57 0.53 0.48 0.40 0.44 0.57 0.67 0.59 0.60 0.69 1.06 1.27 1.31 1.54 1.46 1.40 1.45 1.49 1.47 1.44 1.54 1.61 1.70 1.77 1.74 1.73 1.71 1.69 1.70 1.87 1.80 1.68 1.59 1.67 1.77 1.92 1.95 1.81 1.71 1.60 1.74 1.80 1.84 1.89 1.99 1.93
0.66 0.70 0.60 0.60 0.54 0.40 0.47 0.48 0.55 0.60 0.59 0.58 0.70 0.98 1.35 1.44 1.51 1.58 1.48 1.50 1.41 1.39 1.36 1.47 1.50 1.54 1.67 1.65 1.53 1.57 1.59 1.54 1.54 1.55 1.49 1.47 1.45 1.40 1.43 1.41 1.44 1.27 1.23 1.43 1.56 1.68 1.84 2.00 2.10
0.53 0.63 0.46 0.50 0.41 0.38 0.53 0.50 0.60 0.74 0.69 0.71 0.73 0.84 1.22 1.30 1.32 1.38 1.47 1.44 1.33 1.22 1.22 1.38 1.39 1.37 1.49 1.52 1.56 1.57 1.57 1.52 1.44 1.43 1.39 1.16 1.15 1.17 1.18 1.10 0.94 1.04 1.13 1.26 1.43 1.59 1.81 1.94 2.08
0.46 0.54 0.43 0.37 0.38 0.42 0.54 0.49 0.52 0.70 0.74 0.76 0.86 0.91 1.06 1.11 1.20 1.26 1.37 1.33 1.29 1.18 1.29 1.40 1.43 1.46 1.60 1.62 1.60 1.66 1.66 1.57 1.40 1.31 1.19 0.99 1.00 1.00 0.93 0.96 1.01 1.06 1.06 1.13 1.30 1.45 1.74 1.80 1.84
0.43 0.44 0.51 0.51 0.51 0.46 0.52 0.61 0.67 0.71 0.77 0.71 0.80 0.92 0.94 0.99 1.08 1.19 1.33 1.24 1.17 1.23 1.36 1.47 1.52 1.57 1.62 1.64 1.67 1.63 1.64 1.58 1.45 1.09 0.96 0.95 1.01 1.06 1.20 1.12 1.01 1.04 1.01 1.06 1.13 1.27 1.42 1.67 1.70
0.41 0.53 0.45 0.51 0.42 0.39 0.47 0.51 0.53 0.70 0.76 0.71 0.83 0.92 0.97 1.00 1.06 1.15 1.10 1.12 1.19 1.32 1.45 1.57 1.61 1.57 1.65 1.68 1.66 1.61 1.56 1.40 1.22 1.23 1.13 1.19 1.26 1.28 1.38 1.31 1.13 1.00 0.99 0.99 1.10 1.20 1.24 1.26 1.52
0.39 0.42 0.55 0.51 0.50 0.42 0.42 0.51 0.74 0.76 0.79 0.84 0.99 0.97 0.98 0.99 1.03 1.11 1.13 1.27 1.31 1.42 1.53 1.58 1.61 1.57 1.63 1.70 1.55 1.49 1.55 1.43 1.47 1.37 1.39 1.33 1.36 1.41 1.40 1.46 1.22 1.05 1.00 1.06 1.08 1.02 0.90 0.84 1.00
0.45 0.38 0.49 0.46 0.41 0.42 0.49 0.51 0.78 0.80 0.86 0.85 1.00 1.12 1.02 1.05 1.08 1.14 1.22 1.33 1.40 1.46 1.56 1.56 1.57 1.60 1.70 1.66 1.53 1.47 1.51 1.46 1.47 1.52 1.52 1.52 1.48 1.50 1.44 1.48 1.48 1.23 1.09 1.16 1.09 1.00 0.90 0.77 0.77
Wind_Speed
9 8 8 9 9 9 7 8 7 10 8 12 13 8 5 4 4 5 15 15 15 15 15 14 14 14 14 13 14 14 14 13 13 13 13 13 12 12 11 11 12 11 11 11 11 11 10 10 10
8 8 8 7 8 9 9 9 9 7 10 11 11 7 8 9 10 14 16 16 15 15 14 14 14 14 13 13 13 13 13 12 13 13 12 12 11 11 11 10 10 10 10 10 10 10 9 9 9
9 7 7 7 9 8 8 11 9 10 6 10 10 6 6 9 14 13 17 16 15 15 14 13 13 13 13 13 12 12 12 11 11 12 11 11 11 10 10 9 9 9 8 8 8 8 8 8 8
9 9 7 9 16 15 13 7 9 10 13 9 10 9 10 12 10 15 16 15 15 14 14 13 12 12 12 12 12 11 11 11 11 10 10 10 10 9 8 8 7 7 6 6 6 6 6 6 6
10 11 12 9 12 11 11 9 9 10 10 11 11 9 9 11 14 14 14 13 15 14 13 12 12 12 11 11 11 10 10 10 9 9 9 8 8 7 7 6 6 5 5 5 5 5 5 5 5
5 8 9 7 16 13 11 12 8 8 12 11 11 10 7 11 12 13 13 14 14 12 12 12 12 11 11 11 10 9 9 8 7 7 6 6 5 5 5 4 4 3 3 3 3 3 3 3 3
3 7 4 6 11 13 13 10 11 10 9 7 8 9 7 8 12 12 13 14 12 11 11 11 11 11 10 10 9 8 7 5 5 4 4 3 3 3 2 2 1 1 1 2 2 2 3 2 2
7 3 4 5 5 9 8 15 10 10 8 4 7 3 7 10 12 12 13 12 10 10 10 10 10 10 9 9 8 7 5 4 4 3 2 1 1 0 0 1 1 2 2 2 2 2 2 2 3
5 4 5 5 7 3 7 11 10 5 7 6 1 5 8 11 12 12 13 11 10 10 10 10 9 9 9 8 7 6 5 3 2 1 1 2 2 2 1 1 1 2 4 6 5 4 3 3 4
2 3 2 4 4 3 4 9 9 6 8 9 9 8 9 10 10 11 11 10 9 9 10 9 9 9 8 8 7 5 4 3 1 1 1 1 2 2 2 2 3 3 4 6 8 7 7 6 7
1 1 5 6 5 4 5 9 8 5 3 4 8 8 8 8 9 9 9 9 9 9 10 10 9 8 9 8 6 4 5 3 2 1 1 2 3 2 3 3 3 3 4 3 5 8 8 8 9
2 1 2 3 1 2 4 6 8 5 2 2 7 6 8 8 7 7 8 8 9 9 11 11 10 9 8 8 6 5 5 4 3 3 3 2 2 2 3 4 3 4 4 5 6 7 7 7 8
4 3 2 1 1 4 5 5 6 4 3 8 9 9 8 6 6 6 7 7 9 7 10 12 11 9 9 8 7 6 6 7 5 4 4 3 4 4 4 5 5 6 6 7 7 7 8 8 9
4 5 5 2 3 8 5 3 6 3 6 10 10 8 7 6 6 5 5 6 6 7 9 11 12 10 9 9 7 6 4 6 6 6 7 6 5 5 5 5 6 6 6 6 7 8 8 9 10
3 5 6 6 3 3 3 5 5 3 4 10 6 4 4 4 4 4 4 5 4 5 8 12 12 10 9 10 10 8 7 5 6 7 7 7 6 6 6 7 7 7 7 7 7 7 8 10 10
7 5 5 3 6 4 4 5 7 2 2 7 8 6 3 3 4 3 5 4 3 3 5 11 8 10 10 8 8 9 8 8 7 8 8 8 7 9 9 8 8 9 9 9 9 10 10 12 11
5 6 7 5 8 7 3 6 8 3 2 2 7 3 2 2 3 4 3 4 4 5 3 9 10 7 8 9 7 6 7 7 9 9 9 9 11 12 11 10 10 10 10 10 11 12 12 12 11
6 7 7 9 7 5 2 6 8 2 5 4 0 1 2 2 3 5 4 4 5 3 2 3 9 8 6 8 6 6 6 6 8 8 8 7 11 13 14 13 12 9 10 11 13 14 15 16 15
6 5 5 7 7 5 6 6 5 5 5 4 2 2 1 5 3 7 6 5 6 4 3 3 6 7 6 6 6 5 6 6 6 5 6 7 10 12 11 11 12 9 10 12 14 16 18 18 18
7 13 16 10 7 5 7 6 6 5 7 6 4 3 3 3 5 7 8 6 6 5 3 3 4 6 6 5 4 4 4 6 5 7 6 8 10 11 9 6 9 11 12 13 15 17 19 20 20
10 10 9 9 9 11 5 7 5 4 7 7 6 6 4 3 8 8 9 7 6 5 4 4 5 6 4 4 2 2 3 2 3 5 6 8 10 10 10 8 8 9 12 14 15 17 18 20 20
13 13 12 10 6 6 7 9 4 6 6 9 12 12 7 1 9 9 7 8 7 5 5 4 5 5 4 3 1 1 2 2 3 4 6 7 9 9 9 7 7 10 12 13 15 17 18 18 19
12 16 10 8 8 8 9 8 11 8 9 7 7 8 11 3 10 11 9 8 7 6 5 5 4 4 3 3 1 1 2 2 4 4 5 7 9 8 8 6 9 11 12 13 14 17 18 19 19
14 12 11 11 12 5 10 8 10 10 9 8 7 4 12 9 11 15 9 8 6 5 4 4 3 3 2 1 0 2 3 3 5 6 7 8 7 7 8 9 10 11 11 12 14 16 18 20 16
15 12 8 8 7 10 8 6 9 14 10 7 6 5 8 11 10 9 8 7 6 5 4 3 3 2 1 1 1 2 3 4 5 7 7 8 6 7 9 10 10 11 11 12 13 15 16 17 15
14 16 12 10 6 9 11 10 8 7 8 8 9 5 7 7 8 6 6 5 6 6 5 3 2 1 1 2 2 2 4 5 6 7 8 7 7 8 9 10 10 11 12 12 13 14 15 16 15
17 14 14 7 10 8 8 11 12 7 9 7 6 7 7 8 7 6 5 5 6 6 5 3 2 2 3 3 4 4 5 6 7 7 6 6 8 8 9 11 12 12 12 12 13 13 14 15 15
18 15 11 11 8 8 11 7 6 11 12 7 8 8 7 7 7 7 5 6 6 6 5 3 2 3 3 3 4 5 5 6 6 5 5 6 8 9 10 11 12 13 14 14 13 13 14 15 15
17 15 15 13 10 7 5 6 5 7 6 3 13 10 9 8 8 8 6 7 6 6 5 3 3 4 3 4 4 4 5 7 7 6 6 7 8 9 11 12 14 15 15 15 14 15 16 16 16
16 17 18 12 11 10 7 11 10 10 7 3 3 14 12 12 10 8 7 7 6 5 4 3 3 2 2 3 2 3 4 7 6 6 6 7 9 12 13 13 15 15 16 16 15 17 18 18 18
Wind_Direction
55 53 51 51 52 57 53 56 68 63 53 65 57 59 97 81 125 130 137 137 135 134 131 125 125 125 121 117 113 111 107 104 101 102 100 100 101 100 100 99 102 101 100 101 102 101 99 97 97
46 56 46 37 52 54 50 59 55 52 73 77 64 75 78 86 104 124 133 139 138 137 134 129 127 128 125 121 118 113 110 106 102 101 101 99 98 99 99 101 102 103 101 100 102 103 100 97 99
52 37 35 46 46 51 57 42 41 72 88 77 67 76 72 103 115 127 135 136 139 138 136 132 130 131 128 127 123 117 112 108 107 102 99 97 97 96 98 101 103 106 104 103 102 105 104 102 102
41 46 31 47 66 53 64 76 22 57 83 75 72 64 92 120 117 128 134 136 139 140 138 136 133 133 132 130 127 120 116 109 106 103 98 95 95 93 99 102 102 105 106 108 108 108 109 108 109
51 55 44 40 64 52 39 39 46 74 70 69 69 92 94 115 127 134 136 138 138 139 139 139 137 137 136 134 131 125 120 115 108 103 98 96 94 93 96 99 101 104 108 113 116 117 118 115 113
26 35 27 41 59 59 61 62 70 55 86 85 71 89 99 127 136 140 141 139 140 138 141 140 141 141 140 138 137 131 126 120 114 108 100 96 93 94 97 95 102 109 114 122 127 135 138 141 133
286 4 56 76 77 61 53 62 42 53 83 73 89 86 121 135 144 143 141 142 141 140 144 144 143 145 145 145 144 139 134 128 122 114 102 95 83 93 108 96 107 133 156 163 157 156 166 173 185
47 84 21 11 66 68 67 26 31 45 33 58 99 53 145 150 153 146 144 145 145 148 150 150 151 149 151 152 154 149 140 130 130 120 108 90 6 10 260 272 268 240 227 223 210 210 212 222 230
59 57 359 -0 78 61 26 24 21 31 42 19 8 112 134 151 156 153 149 150 149 151 158 159 158 158 158 159 160 160 159 151 143 162 282 303 293 269 252 268 300 274 252 246 239 240 239 246 253
332 18 350 85 74 55 41 37 36 50 43 36 80 99 128 150 157 162 161 161 163 166 168 168 168 169 166 166 166 172 178 181 188 256 259 358 323 253 254 280 285 289 279 254 242 249 252 261 264
346 76 70 93 112 99 48 48 34 57 27 29 93 105 135 145 159 167 174 179 180 179 179 180 176 176 180 178 181 198 196 202 227 251 242 308 337 244 261 279 286 277 283 270 256 257 258 266 264
253 293 2 143 88 95 103 61 24 6 20 17 96 108 133 141 154 170 183 192 188 193 192 192 190 189 191 196 202 212 214 225 251 256 246 303 290 319 274 274 280 286 281 283 270 263 267 270 263
254 310 287 221 180 148 129 80 360 22 95 116 103 110 121 136 155 165 175 187 192 203 202 199 197 196 201 204 216 226 236 242 249 245 255 277 284 291 296 270 285 285 283 280 277 270 272 270 268
266 288 272 311 172 126 131 322 332 283 168 116 113 119 122 125 147 156 164 166 187 202 200 193 197 203 206 215 222 228 247 235 246 252 255 257 267 279 295 286 281 279 286 285 283 275 281 278 275
256 253 266 251 206 174 146 337 332 316 176 103 90 102 138 131 137 152 164 163 185 204 202 203 208 215 222 228 230 236 242 243 258 258 251 256 261 276 286 286 287 276 284 283 283 287 286 280 282
262 254 272 250 239 261 302 318 305 353 129 45 27 9 9 156 142 128 153 146 141 169 193 199 206 216 221 220 224 234 244 250 264 259 258 261 269 288 287 283 283 277 278 280 283 284 292 288 278
265 255 296 282 282 244 287 290 306 255 134 89 3 67 317 30 186 144 120 166 164 105 103 182 201 211 218 211 213 226 237 253 261 268 268 273 278 285 284 277 276 275 278 280 283 285 284 282 286
268 291 276 275 248 225 252 282 307 269 185 194 298 162 316 231 184 177 146 146 147 154 108 157 196 203 197 200 208 220 237 264 278 273 278 280 305 299 280 265 265 271 284 286 288 284 282 279 280
253 244 271 242 275 272 253 266 276 162 152 196 262 261 47 224 169 183 147 138 144 139 126 119 162 175 176 184 197 229 248 265 275 274 296 301 314 326 317 263 270 290 292 294 293 292 284 279 273
265 261 267 249 259 270 291 282 245 191 183 209 232 223 292 149 192 172 153 136 140 139 125 127 154 174 175 177 207 244 266 276 267 287 299 309 317 323 328 298 278 283 295 302 301 299 294 285 275
218 240 285 227 263 274 275 295 195 223 211 261 263 260 276 237 188 187 165 152 146 140 133 121 141 155 161 176 191 260 282 311 327 310 311 318 323 326 326 309 289 296 301 305 310 308 300 291 283
239 251 284 248 245 262 267 254 243 255 268 265 240 245 234 97 214 189 174 169 158 143 135 131 143 154 149 151 114 42 7 309 326 323 319 326 330 328 328 316 303 306 308 310 314 320 311 303 289
235 234 263 256 266 282 290 261 269 266 278 295 262 232 231 104 223 201 190 174 157 141 131 137 140 153 154 151 73 42 18 358 342 340 335 338 337 341 350 339 321 316 312 314 318 326 323 313 298
219 241 256 273 262 269 300 273 247 250 260 268 286 229 195 196 202 193 187 175 161 140 125 134 139 145 155 169 228 15 4 358 352 348 344 348 3 4 356 346 337 334 327 323 323 326 332 331 315
239 217 247 261 257 237 289 296 256 238 249 237 251 255 168 177 166 165 173 179 175 164 149 142 147 153 171 220 266 312 345 351 352 354 354 349 347 345 343 340 343 344 342 338 336 337 338 344 341
237 225 224 237 233 254 293 265 262 262 232 228 250 210 164 167 164 167 171 176 184 178 169 164 167 188 228 260 279 294 322 335 348 346 349 360 358 353 352 355 353 349 348 347 345 344 345 348 348
238 229 227 229 249 270 273 250 272 255 199 219 218 195 189 181 178 171 182 182 177 182 187 181 197 251 271 278 281 288 302 321 331 338 349 3 10 8 6 4 2 358 353 348 348 349 351 351 353
223 227 240 232 241 242 274 251 222 188 250 251 199 188 188 189 200 191 193 179 180 182 188 204 247 262 271 286 292 291 305 314 318 314 329 335 343 352 352 353 354 351 349 347 345 347 345 346 347
224 223 222 231 224 244 267 242 245 213 243 282 212 190 191 203 202 195 191 186 185 184 192 222 265 269 271 292 290 307 318 321 308 302 300 315 326 334 336 336 340 342 343 343 342 341 339 335 332
224 219 223 216 243 247 247 249 215 235 257 243 263 207 208 201 187 183 185 192 188 197 205 241 262 274 281 299 284 313 327 344 344 314 302 315 324 326 328 327 330 334 336 335 336 336 336 334 330